Location: Poprad
(49.0500°N, 20.3000°E)
Time: 10:46:05
(UTC+02:00)

AO-73 - Pass Details

Date: 29 April 2024
Orbit: 559 x 625 km, 97.7° (Epoch: 29 May)

Event Time Altitude Azimuth Distance (km) Brightness Sun altitude
Rises 03:36:55 0° 17° (NNE) 2,924 ? -14.9°
Reaches altitude 10° 03:39:10 10° 21° (NNE) 2,014 ? -14.6°
Maximum altitude 03:43:29 55° 100° (E) 755 ? -14.1°
Drops below altitude 10° 03:47:45 10° 179° (S) 1,991 ? -13.6°
Enters shadow 03:47:53 - 179° (S) 2,042 ? -13.6°
